Weather History for Fort Yukon, AK

Change the Weather History Date:

Sunday, May 20, 2012

  Actual Average Record
Temperature  
Mean Temperature 50 °F -  
Max Temperature 66 °F 56 °F 71 °F (2002)
Min Temperature 33 °F 35 °F 28 °F (2013)
Degree Days  
Heating Degree Days 16    
Moisture  
Dew Point 25 °F    
Average Humidity 39    
Maximum Humidity 93    
Minimum Humidity 10    
Precipitation  
Precipitation 0.00 in - - ()
Sea Level Pressure  
Sea Level Pressure 29.71 in    
Wind  
Wind Speed 1 mph (West)    
Max Wind Speed 7 mph    
Max Gust Speed -    
Visibility 9 miles    
Events      
Averages and records for this station are not official NWS values.
T = Trace of Precipitation, MM = Missing Value Source: NWS Daily Summary

Daily Weather History Graph

Daily Weather History Graph

Search for Another Location

Airport:

Trip Planner

Search our weather history database for the weather conditions in past years. The results will help you decide how hot, cold, wet, or windy it might be!

Date:

Astronomy

May. 20, 2012 Rise Set
Actual Time 3:29 AM AKDT 11:50 PM AKDT
Civil Twilight Sun does not rise Sun does not rise
Nautical Twilight Sun does not rise Sun does not rise
Astronomical Twilight Sun does not rise Sun does not rise
Moon 3:29 AM AKDT (5/20) No Moon Set
Length of Visible Light 24h 00m
Length of Day
20h 21m
Waning Crescent, 0% of the Moon is Illuminated
May 20
Waning Crescent
May 20
New
May 28
First Quarter
Jun 4
Full
Jun 11
Last Quarter

Hourly Weather History & Observations

Time (AKDT) Temp. Windchill Dew Point Humidity Pressure Visibility Wind Dir Wind Speed Gust Speed Precip Events Conditions
12:16 AM 42.8 °F - 30.2 °F 61% 29.72 in 8.0 mi Calm Calm - N/A   Clear
12:36 AM 42.8 °F - 28.4 °F 57% 29.72 in 8.0 mi Calm Calm - N/A   Clear
12:56 AM 41.0 °F - 32.0 °F 70% 29.72 in 5.0 mi Calm Calm - N/A   Clear
1:16 AM 41.0 °F - 32.0 °F 70% 29.72 in 7.0 mi Calm Calm - N/A   Clear
1:36 AM 39.2 °F - 30.2 °F 70% 29.72 in 6.0 mi Calm Calm - N/A   Clear
1:56 AM 37.4 °F - 33.8 °F 87% 29.72 in 5.0 mi Calm Calm - N/A   Clear
2:16 AM 39.2 °F - 33.8 °F 81% 29.73 in 10.0 mi Calm Calm - N/A   Clear
2:36 AM 35.6 °F 32.8 °F 30.2 °F 81% 29.73 in 8.0 mi South 3.5 mph - N/A   Clear
2:56 AM 39.2 °F - 35.6 °F 87% 29.73 in 10.0 mi Calm Calm - N/A   Clear
3:16 AM 37.4 °F - 30.2 °F 75% 29.73 in 7.0 mi Calm Calm - N/A   Clear
3:36 AM 37.4 °F - 33.8 °F 87% 29.73 in 7.0 mi Calm Calm - N/A   Clear
3:56 AM 35.6 °F - 30.2 °F 81% 29.73 in 7.0 mi Calm Calm - N/A   Clear
4:16 AM 35.6 °F - 30.2 °F 81% 29.73 in 5.0 mi Calm Calm - N/A   Clear
4:36 AM 33.8 °F 30.8 °F 30.2 °F 87% 29.73 in 8.0 mi NE 3.5 mph - N/A   Clear
4:56 AM 33.8 °F - 30.2 °F 87% 29.74 in 6.0 mi Calm Calm - N/A   Clear
5:16 AM 35.6 °F - 33.8 °F 93% 29.74 in 7.0 mi Calm Calm - N/A   Clear
5:36 AM 35.6 °F - 33.8 °F 93% 29.73 in 10.0 mi Calm Calm - N/A   Clear
5:56 AM 35.6 °F - 30.2 °F 81% 29.74 in 9.0 mi Calm Calm - N/A   Clear
6:16 AM 39.2 °F - 33.8 °F 81% 29.74 in 10.0 mi Calm Calm - N/A   Clear
6:36 AM 42.8 °F - 33.8 °F 70% 29.74 in 10.0 mi Calm Calm - N/A   Clear
6:56 AM 46.4 °F - 33.8 °F 62% 29.74 in 10.0 mi Calm Calm - N/A   Clear
7:16 AM 48.2 °F - 30.2 °F 50% 29.74 in 10.0 mi Calm Calm - N/A   Clear
7:36 AM 51.8 °F - 28.4 °F 41% 29.74 in 10.0 mi Calm Calm - N/A   Clear
7:56 AM 53.6 °F - 26.6 °F 35% 29.74 in 10.0 mi Calm Calm - N/A   Partly Cloudy
8:16 AM 55.4 °F - 26.6 °F 33% 29.74 in 10.0 mi Calm Calm - N/A   Partly Cloudy
8:36 AM 55.4 °F - 26.6 °F 33% 29.74 in 10.0 mi Calm Calm - N/A   Partly Cloudy
8:56 AM 57.2 °F - 24.8 °F 29% 29.74 in 10.0 mi Calm Calm - N/A   Partly Cloudy
9:16 AM 57.2 °F - 24.8 °F 29% 29.74 in 10.0 mi Calm Calm - N/A   Partly Cloudy
9:36 AM 59.0 °F - 21.2 °F 23% 29.74 in 10.0 mi Calm Calm - N/A   Partly Cloudy
9:56 AM 60.8 °F - 21.2 °F 22% 29.74 in 10.0 mi Calm Calm - N/A   Scattered Clouds
10:16 AM 60.8 °F - 19.4 °F 20% 29.73 in 10.0 mi Calm Calm - N/A   Scattered Clouds
10:36 AM 62.6 °F - 19.4 °F 19% 29.73 in 10.0 mi Calm Calm - N/A   Mostly Cloudy
10:56 AM 62.6 °F - 19.4 °F 19% 29.73 in 10.0 mi SSW 5.8 mph - N/A   Mostly Cloudy
11:16 AM 62.6 °F - 19.4 °F 19% 29.73 in 10.0 mi West 5.8 mph - N/A   Scattered Clouds
11:36 AM 62.6 °F - 19.4 °F 19% 29.73 in 10.0 mi West 4.6 mph - N/A   Overcast
11:56 AM 62.6 °F - 19.4 °F 19% 29.72 in 10.0 mi West 4.6 mph - N/A   Mostly Cloudy
12:16 PM 64.4 °F - 21.2 °F 19% 29.72 in 10.0 mi WNW 4.6 mph - N/A   Mostly Cloudy
12:36 PM 62.6 °F - 19.4 °F 19% 29.71 in 10.0 mi SW 6.9 mph - N/A   Mostly Cloudy
12:56 PM 64.4 °F - 21.2 °F 19% 29.71 in 10.0 mi South 4.6 mph - N/A   Mostly Cloudy
1:16 PM 64.4 °F - 21.2 °F 19% 29.71 in 10.0 mi WNW 3.5 mph - N/A   Mostly Cloudy
1:56 PM 66.2 °F - 21.2 °F 18% 29.70 in 10.0 mi West 6.9 mph - N/A   Mostly Cloudy
2:16 PM 64.4 °F - 21.2 °F 19% 29.70 in 10.0 mi WSW 4.6 mph - N/A   Mostly Cloudy
2:36 PM 62.6 °F - 21.2 °F 20% 29.70 in 10.0 mi Calm Calm - N/A   Mostly Cloudy
2:56 PM 62.6 °F - 19.4 °F 19% 29.70 in 10.0 mi Calm Calm - N/A   Scattered Clouds
3:16 PM 62.6 °F - 21.2 °F 20% 29.70 in 10.0 mi Calm Calm - N/A   Mostly Cloudy
3:36 PM 64.4 °F - 21.2 °F 19% 29.69 in 10.0 mi West 3.5 mph - N/A   Mostly Cloudy
3:56 PM 64.4 °F - 21.2 °F 19% 29.69 in 10.0 mi Calm Calm - N/A   Mostly Cloudy
4:16 PM 64.4 °F - 21.2 °F 19% 29.69 in 10.0 mi NW 4.6 mph - N/A   Partly Cloudy
4:36 PM 64.4 °F - 19.4 °F 18% 29.68 in 10.0 mi Calm Calm - N/A   Scattered Clouds
4:56 PM 64.4 °F - 19.4 °F 18% 29.68 in 10.0 mi Calm Calm - N/A   Scattered Clouds
5:16 PM 66.2 °F - 21.2 °F 18% 29.67 in 10.0 mi SW 3.5 mph - N/A   Clear
5:36 PM 64.4 °F - 19.4 °F 18% 29.67 in 10.0 mi Calm Calm - N/A   Scattered Clouds
5:56 PM 66.2 °F - 19.4 °F 17% 29.67 in 10.0 mi Calm Calm - N/A   Scattered Clouds
6:16 PM 66.2 °F - 19.4 °F 17% 29.66 in 10.0 mi WSW 3.5 mph - N/A   Scattered Clouds
6:36 PM 66.2 °F - 19.4 °F 17% 29.66 in 10.0 mi WNW 5.8 mph - N/A   Scattered Clouds
6:56 PM 66.2 °F - 19.4 °F 17% 29.66 in 10.0 mi WSW 5.8 mph - N/A   Scattered Clouds
7:16 PM 66.2 °F - 19.4 °F 17% 29.66 in 10.0 mi West 4.6 mph - N/A   Scattered Clouds
7:36 PM 66.2 °F - 21.2 °F 18% 29.66 in 10.0 mi WNW 3.5 mph - N/A   Clear
7:56 PM 66.2 °F - 19.4 °F 17% 29.66 in 10.0 mi West 4.6 mph - N/A   Clear
8:16 PM 66.2 °F - 21.2 °F 18% 29.66 in 10.0 mi NNE 4.6 mph - N/A   Mostly Cloudy
8:36 PM 64.4 °F - 19.4 °F 18% 29.66 in 10.0 mi East 3.5 mph - N/A   Scattered Clouds
8:56 PM 66.2 °F - 21.2 °F 18% 29.66 in 10.0 mi Calm Calm - N/A   Mostly Cloudy
9:16 PM 64.4 °F - 21.2 °F 19% 29.66 in 10.0 mi SE 3.5 mph - N/A   Mostly Cloudy
9:36 PM 64.4 °F - 21.2 °F 19% 29.66 in 10.0 mi ESE 3.5 mph - N/A   Partly Cloudy
10:16 PM 60.8 °F - 21.2 °F 22% 29.67 in 9.0 mi Calm Calm - N/A   Clear
10:36 PM 57.2 °F - 30.2 °F 36% 29.67 in 7.0 mi ENE 3.5 mph - N/A   Clear
10:56 PM 55.4 °F - 24.8 °F 31% 29.67 in 9.0 mi NE 3.5 mph - N/A   Clear
11:16 PM 55.4 °F - 24.8 °F 31% 29.67 in 10.0 mi East 3.5 mph - N/A   Clear
11:36 PM 53.6 °F - 24.8 °F 33% 29.67 in 10.0 mi Calm Calm - N/A   Clear
11:56 PM 50.0 °F - 28.4 °F 43% 29.67 in 10.0 mi NE 3.5 mph - N/A   Clear